When you browse on this site, cookies collect data to enhance your experience and personalize the content and advertising you see.
Visit our Privacy Policy to learn more. By continuing to use the site, you agree to this use of cookies and data.
  • In United Kingdom
  • List of Countries
  • For 7 days
  • Water Temperature
  • Weather Map
  • Weather Widgets
  • user-avatar
    Login

    Hourly Weather Baku

    Today, 20 August, Tuesday

    Time Temperature Precipitation Wind Pressure Humidity
    00:00 +30°C° 0 mm 4 mps 760 mmHg 34%
    01:00 +30°C° 0 mm 3 mps 760 mmHg 37%
    02:00 +30°C° 0 mm 3 mps 760 mmHg 39%
    03:00 +29°C° 0 mm 3 mps 760 mmHg 44%
    04:00 +29°C° 0 mm 3 mps 760 mmHg 44%
    05:00 +29°C° 0 mm 3 mps 761 mmHg 44%
    06:00 +30°C° 0 mm 3 mps 761 mmHg 44%
    07:00 +31°C° 0 mm 3 mps 761 mmHg 40%
    08:00 +33°C° 0 mm 3 mps 761 mmHg 36%
    09:00 +35°C° 0 mm 2 mps 761 mmHg 34%
    10:00 +35°C° 0 mm 3 mps 761 mmHg 31%
    11:00 +36°C° 0 mm 3 mps 761 mmHg 29%
    12:00 +37°C° 0 mm 3 mps 761 mmHg 26%
    13:00 +37°C° 0 mm 4 mps 761 mmHg 25%
    14:00 +37°C° 0 mm 4 mps 760 mmHg 25%
    15:00 +37°C° 0 mm 4 mps 760 mmHg 24%
    16:00 +37°C° 0 mm 4 mps 760 mmHg 23%
    17:00 +36°C° 0 mm 3 mps 760 mmHg 23%
    18:00 +36°C° 0 mm 3 mps 760 mmHg 23%
    19:00 +35°C° 0 mm 3 mps 760 mmHg 25%
    20:00 +34°C° 0 mm 2 mps 760 mmHg 27%
    21:00 +32°C° 0 mm 2 mps 760 mmHg 28%
    22:00 +31°C° 0 mm 2 mps 760 mmHg 30%
    23:00 +31°C° 0 mm 1 mps 760 mmHg 31%

    Tomorrow, 21 August, Wednesday

    Time Temperature Precipitation Wind Pressure Humidity
    00:00 +30°C° 0 mm 1 mps 759 mmHg 32%
    01:00 +30°C° 0 mm 1 mps 759 mmHg 33%
    02:00 +30°C° 0 mm 1 mps 759 mmHg 34%
    03:00 +27°C° 0 mm 0 mps 759 mmHg 35%
    04:00 +27°C° 0 mm 0 mps 759 mmHg 34%
    05:00 +28°C° 0 mm 0 mps 759 mmHg 33%
    06:00 +30°C° 0 mm 1 mps 759 mmHg 31%
    07:00 +31°C° 0 mm 1 mps 759 mmHg 28%
    08:00 +33°C° 0 mm 1 mps 760 mmHg 25%
    09:00 +34°C° 0 mm 1 mps 760 mmHg 22%
    10:00 +36°C° 0 mm 2 mps 759 mmHg 21%
    11:00 +37°C° 0 mm 3 mps 759 mmHg 20%
    12:00 +38°C° 0 mm 4 mps 759 mmHg 20%
    13:00 +38°C° 0 mm 4 mps 759 mmHg 20%
    14:00 +39°C° 0 mm 5 mps 758 mmHg 21%
    15:00 +39°C° 0 mm 5 mps 758 mmHg 21%
    16:00 +37°C° 0 mm 5 mps 758 mmHg 22%
    17:00 +36°C° 0 mm 4 mps 757 mmHg 23%
    18:00 +35°C° 0 mm 4 mps 757 mmHg 25%
    19:00 +35°C° 0 mm 3 mps 757 mmHg 26%
    20:00 +34°C° 0 mm 2 mps 757 mmHg 27%
    21:00 +32°C° 0 mm 1 mps 757 mmHg 28%
    22:00 +32°C° 0 mm 1 mps 757 mmHg 29%
    23:00 +31°C° 0 mm 1 mps 757 mmHg 31%

    Day after tomorrow, 22 August, Thursday

    Time Temperature Precipitation Wind Pressure Humidity
    00:00 +31°C° 0 mm 1 mps 757 mmHg 32%
    01:00 +30°C° 0 mm 1 mps 757 mmHg 33%
    02:00 +30°C° 0 mm 1 mps 757 mmHg 34%
    03:00 +27°C° 0 mm 0 mps 757 mmHg 36%
    04:00 +28°C° 0 mm 0 mps 757 mmHg 35%
    05:00 +28°C° 0 mm 0 mps 757 mmHg 34%
    06:00 +30°C° 0 mm 1 mps 757 mmHg 33%
    07:00 +31°C° 0 mm 1 mps 757 mmHg 30%
    08:00 +33°C° 0 mm 1 mps 757 mmHg 27%
    09:00 +34°C° 0 mm 1 mps 757 mmHg 24%
    10:00 +35°C° 0 mm 1 mps 757 mmHg 23%
    11:00 +37°C° 0 mm 2 mps 757 mmHg 22%
    12:00 +38°C° 0 mm 2 mps 757 mmHg 20%
    13:00 +38°C° 0 mm 2 mps 756 mmHg 20%
    14:00 +39°C° 0 mm 3 mps 756 mmHg 19%
    15:00 +39°C° 0 mm 3 mps 756 mmHg 19%
    16:00 +38°C° 0 mm 3 mps 756 mmHg 20%
    17:00 +38°C° 0 mm 3 mps 756 mmHg 21%
    18:00 +37°C° 0 mm 2 mps 756 mmHg 21%
    19:00 +36°C° 0 mm 2 mps 756 mmHg 23%
    20:00 +35°C° 0 mm 2 mps 756 mmHg 25%
    21:00 +34°C° 0 mm 2 mps 756 mmHg 27%
    22:00 +34°C° 0 mm 2 mps 756 mmHg 29%
    23:00 +32°C° 0 mm 2 mps 756 mmHg 31%

    23 August, Friday

    Time Temperature Precipitation Wind Pressure Humidity
    00:00 +32°C° 0 mm 2 mps 756 mmHg 34%
    01:00 +31°C° 0 mm 1 mps 756 mmHg 34%
    02:00 +31°C° 0 mm 1 mps 756 mmHg 35%
    03:00 +28°C° 0 mm 0 mps 756 mmHg 36%
    04:00 +31°C° 0 mm 1 mps 756 mmHg 35%
    05:00 +31°C° 0 mm 1 mps 756 mmHg 34%
    06:00 +31°C° 0 mm 1 mps 756 mmHg 33%
    07:00 +32°C° 0 mm 2 mps 757 mmHg 31%
    08:00 +35°C° 0 mm 2 mps 757 mmHg 29%
    09:00 +36°C° 0 mm 3 mps 757 mmHg 27%
    10:00 +37°C° 0 mm 3 mps 757 mmHg 26%
    11:00 +38°C° 0 mm 3 mps 757 mmHg 25%
    12:00 +38°C° 0 mm 4 mps 757 mmHg 24%
    13:00 +40°C° 0 mm 4 mps 756 mmHg 24%
    14:00 +40°C° 0 mm 5 mps 756 mmHg 24%
    15:00 +40°C° 0 mm 5 mps 756 mmHg 23%
    16:00 +39°C° 0 mm 5 mps 756 mmHg 24%
    17:00 +38°C° 0 mm 4 mps 756 mmHg 24%
    18:00 +37°C° 0 mm 4 mps 756 mmHg 25%
    19:00 +36°C° 0 mm 4 mps 756 mmHg 27%
    20:00 +35°C° 0 mm 3 mps 756 mmHg 29%
    21:00 +34°C° 0 mm 3 mps 756 mmHg 32%
    22:00 +34°C° 0 mm 3 mps 756 mmHg 34%
    23:00 +33°C° 0 mm 3 mps 756 mmHg 36%

    24 August, Saturday

    Time Temperature Precipitation Wind Pressure Humidity
    00:00 +33°C° 0 mm 3 mps 756 mmHg 38%
    01:00 +33°C° 0 mm 3 mps 757 mmHg 41%
    02:00 +31°C° 0 mm 3 mps 757 mmHg 44%
    03:00 +31°C° 0 mm 3 mps 757 mmHg 48%
    04:00 +31°C° 0 mm 3 mps 757 mmHg 48%
    05:00 +31°C° 0 mm 3 mps 757 mmHg 48%
    06:00 +30°C° 0 mm 3 mps 757 mmHg 48%
    07:00 +31°C° 0 mm 3 mps 758 mmHg 42%
    08:00 +33°C° 0 mm 3 mps 758 mmHg 36%
    09:00 +35°C° 0 mm 4 mps 758 mmHg 29%
    10:00 +35°C° 0 mm 4 mps 758 mmHg 27%
    11:00 +36°C° 0 mm 4 mps 758 mmHg 25%
    12:00 +36°C° 0 mm 4 mps 758 mmHg 23%
    13:00 +36°C° 0 mm 4 mps 758 mmHg 22%
    14:00 +36°C° 0 mm 4 mps 757 mmHg 21%
    15:00 +36°C° 0 mm 4 mps 757 mmHg 20%
    16:00 +36°C° 0 mm 4 mps 757 mmHg 20%
    17:00 +35°C° 0 mm 4 mps 757 mmHg 21%
    18:00 +34°C° 0 mm 4 mps 757 mmHg 21%
    19:00 +33°C° 0 mm 5 mps 758 mmHg 27%
    20:00 +32°C° 0 mm 5 mps 758 mmHg 32%
    21:00 +30°C° 0 mm 6 mps 758 mmHg 37%
    22:00 +30°C° 0 mm 6 mps 758 mmHg 39%
    23:00 +29°C° 0 mm 6 mps 758 mmHg 42%

    25 August, Sunday

    Time Temperature Precipitation Wind Pressure Humidity
    00:00 +29°C° 0 mm 6 mps 758 mmHg 44%
    01:00 +29°C° 0 mm 6 mps 758 mmHg 44%
    02:00 +28°C° 0 mm 6 mps 758 mmHg 45%
    03:00 +28°C° 0 mm 6 mps 758 mmHg 45%
    04:00 +28°C° 0 mm 5 mps 758 mmHg 46%
    05:00 +28°C° 0 mm 5 mps 758 mmHg 48%
    06:00 +28°C° 0 mm 5 mps 758 mmHg 49%
    07:00 +29°C° 0 mm 5 mps 759 mmHg 45%
    08:00 +30°C° 0 mm 4 mps 759 mmHg 42%
    09:00 +32°C° 0 mm 4 mps 759 mmHg 39%
    10:00 +32°C° 0 mm 4 mps 759 mmHg 35%
    11:00 +33°C° 0 mm 4 mps 759 mmHg 32%
    12:00 +34°C° 0 mm 3 mps 759 mmHg 29%
    13:00 +35°C° 0 mm 4 mps 759 mmHg 27%
    14:00 +35°C° 0 mm 4 mps 758 mmHg 24%
    15:00 +36°C° 0 mm 5 mps 758 mmHg 22%
    16:00 +35°C° 0 mm 4 mps 758 mmHg 22%
    17:00 +35°C° 0 mm 4 mps 758 mmHg 22%
    18:00 +34°C° 0 mm 3 mps 758 mmHg 23%
    19:00 +33°C° 0 mm 3 mps 758 mmHg 25%
    20:00 +31°C° 0 mm 3 mps 759 mmHg 28%
    21:00 +30°C° 0 mm 2 mps 759 mmHg 31%
    22:00 +30°C° 0 mm 2 mps 759 mmHg 32%
    23:00 +30°C° 0 mm 1 mps 759 mmHg 33%
    Show more